Time,TemperatureF,DewpointF,PressureIn,WindDirection,WindDirectionDegrees,WindSpeedMPH,WindSpeedGustMPH,Humidity,HourlyPrecipIn,Conditions,Clouds,dailyrainin,SoftwareType,DateUTC
2013-05-17 00:00:00,38.2,31.0,29.59,SSW,202,3.0,4.0,75,0.00,CLR,,0.00,WeatherDisplay:10.37,2013-05-16 23:00:00,
2013-05-17 00:10:00,37.0,29.8,29.59,SSW,202,2.0,4.0,75,0.00,CLR,,0.00,WeatherDisplay:10.37,2013-05-16 23:10:00,
2013-05-17 00:20:00,35.8,28.9,29.59,SW,222,0.0,5.0,76,0.00,CLR,,0.00,WeatherDisplay:10.37,2013-05-16 23:20:00,
2013-05-17 00:30:00,34.4,27.6,29.59,SW,225,3.0,4.0,76,0.00,CLR,,0.00,WeatherDisplay:10.37,2013-05-16 23:30:00,
2013-05-17 00:40:00,33.7,27.0,29.60,WSW,248,1.0,4.0,76,0.00,CLR,,0.00,WeatherDisplay:10.37,2013-05-16 23:40:00,
2013-05-17 00:50:00,32.9,26.2,29.60,WSW,248,0.0,4.0,76,0.00,CLR,,0.00,WeatherDisplay:10.37,2013-05-16 23:50:00,
2013-05-17 01:00:00,32.0,25.3,29.61,WSW,248,0.0,2.0,76,0.00,CLR,,0.00,WeatherDisplay:10.37,2013-05-17 00:00:00,
2013-05-17 01:10:00,31.3,24.6,29.61,West,259,1.0,2.0,76,0.00,CLR,,0.00,WeatherDisplay:10.37,2013-05-17 00:10:00,
2013-05-17 01:20:00,30.7,24.4,29.61,WSW,256,2.0,4.0,77,0.00,CLR,,0.00,WeatherDisplay:10.37,2013-05-17 00:20:00,
2013-05-17 01:30:00,30.6,24.3,29.61,West,259,2.0,4.0,77,0.00,CLR,,0.00,WeatherDisplay:10.37,2013-05-17 00:30:00,
2013-05-17 01:40:00,30.7,24.7,29.61,West,264,2.0,3.0,78,0.00,CLR,,0.00,WeatherDisplay:10.37,2013-05-17 00:40:00,
2013-05-17 01:50:00,30.4,24.6,29.61,WSW,252,1.0,3.0,79,0.00,CLR,,0.00,WeatherDisplay:10.37,2013-05-17 00:50:00,
2013-05-17 02:00:00,30.6,24.8,29.62,WSW,248,2.0,3.0,79,0.00,CLR,,0.00,WeatherDisplay:10.37,2013-05-17 01:00:00,
2013-05-17 02:10:00,30.7,25.3,29.62,WSW,250,1.0,5.0,80,0.00,CLR,,0.00,WeatherDisplay:10.37,2013-05-17 01:10:00,
2013-05-17 02:20:00,30.5,25.1,29.62,West,271,2.0,5.0,80,0.00,CLR,,0.00,WeatherDisplay:10.37,2013-05-17 01:20:00,
2013-05-17 02:30:00,30.0,24.6,29.62,West,276,0.0,3.0,80,0.00,CLR,,0.00,WeatherDisplay:10.37,2013-05-17 01:30:00,
2013-05-17 02:40:00,30.0,24.9,29.62,West,264,2.0,5.0,81,0.00,CLR,,0.00,WeatherDisplay:10.37,2013-05-17 01:40:00,
2013-05-17 02:50:00,30.8,25.7,29.62,SW,232,0.0,6.0,81,0.00,CLR,,0.00,WeatherDisplay:10.37,2013-05-17 01:50:00,
2013-05-17 03:00:00,31.1,26.2,29.62,SW,225,0.0,1.0,82,0.00,CLR,,0.00,WeatherDisplay:10.37,2013-05-17 02:00:00,
2013-05-17 03:10:00,31.5,26.6,29.62,SW,225,0.0,1.0,82,0.00,CLR,,0.00,WeatherDisplay:10.37,2013-05-17 02:10:00,
2013-05-17 03:20:00,32.2,27.6,29.62,ENE,68,0.0,3.0,83,0.00,CLR,,0.00,WeatherDisplay:10.37,2013-05-17 02:20:00,
2013-05-17 03:30:00,32.5,27.9,29.63,SE,137,2.0,4.0,83,0.00,CLR,,0.00,WeatherDisplay:10.37,2013-05-17 02:30:00,
2013-05-17 03:40:00,32.9,28.6,29.63,East,94,0.0,3.0,84,0.00,CLR,,0.00,WeatherDisplay:10.37,2013-05-17 02:40:00,
2013-05-17 03:50:00,33.4,29.1,29.63,East,92,2.0,5.0,84,0.00,CLR,,0.00,WeatherDisplay:10.37,2013-05-17 02:50:00,
2013-05-17 04:00:00,34.0,29.9,29.63,East,101,0.0,3.0,85,0.00,CLR,,0.00,WeatherDisplay:10.37,2013-05-17 03:00:00,
2013-05-17 04:10:00,34.2,30.1,29.64,NNE,32,0.0,2.0,85,0.00,CLR,,0.00,WeatherDisplay:10.37,2013-05-17 03:10:00,
2013-05-17 04:20:00,34.2,30.1,29.64,SSW,199,0.0,4.0,85,0.00,CLR,,0.00,WeatherDisplay:10.37,2013-05-17 03:20:00,
2013-05-17 04:30:00,34.0,29.9,29.64,ENE,58,0.0,2.0,85,0.00,CLR,,0.00,WeatherDisplay:10.37,2013-05-17 03:30:00,
2013-05-17 04:40:00,33.6,29.6,29.64,WNW,296,0.0,2.0,85,0.00,CLR,,0.00,WeatherDisplay:10.37,2013-05-17 03:40:00,
2013-05-17 04:50:00,33.1,29.0,29.65,WNW,292,1.0,2.0,85,0.00,CLR,,0.00,WeatherDisplay:10.37,2013-05-17 03:50:00,
2013-05-17 05:00:00,32.9,28.9,29.65,WNW,288,3.0,5.0,85,0.00,CLR,,0.00,WeatherDisplay:10.37,2013-05-17 04:00:00,
2013-05-17 05:10:00,32.9,28.9,29.64,West,272,2.0,4.0,85,0.00,CLR,,0.00,WeatherDisplay:10.37,2013-05-17 04:10:00,
2013-05-17 05:20:00,32.7,28.7,29.65,WNW,287,2.0,5.0,85,0.00,CLR,,0.00,WeatherDisplay:10.37,2013-05-17 04:20:00,
2013-05-17 05:30:00,32.7,28.7,29.65,West,270,2.0,4.0,85,0.00,CLR,,0.00,WeatherDisplay:10.37,2013-05-17 04:30:00,
2013-05-17 05:40:00,32.9,28.9,29.65,WNW,283,0.0,2.0,85,0.00,CLR,,0.00,WeatherDisplay:10.37,2013-05-17 04:40:00,
2013-05-17 05:50:00,33.4,29.4,29.66,WSW,255,1.0,4.0,85,0.00,CLR,,0.00,WeatherDisplay:10.37,2013-05-17 04:50:00,
2013-05-17 06:00:00,34.0,30.2,29.66,WSW,248,0.0,2.0,86,0.00,CLR,,0.00,WeatherDisplay:10.37,2013-05-17 05:00:00,
2013-05-17 06:10:00,34.5,30.8,29.66,WSW,248,2.0,5.0,86,0.00,CLR,,0.00,WeatherDisplay:10.37,2013-05-17 05:10:00,
2013-05-17 06:20:00,35.3,31.8,29.66,WSW,248,0.0,5.0,87,0.00,CLR,,0.00,WeatherDisplay:10.37,2013-05-17 05:20:00,
2013-05-17 06:30:00,36.3,33.1,29.66,SW,233,1.0,3.0,88,0.00,CLR,,0.00,WeatherDisplay:10.37,2013-05-17 05:30:00,
2013-05-17 06:40:00,37.8,34.8,29.66,SW,225,2.0,5.0,89,0.00,CLR,,0.00,WeatherDisplay:10.37,2013-05-17 05:40:00,
2013-05-17 06:50:00,38.7,35.7,29.66,SW,215,0.0,5.0,89,0.00,CLR,,0.00,WeatherDisplay:10.37,2013-05-17 05:50:00,
2013-05-17 07:00:00,39.6,36.6,29.67,SE,129,1.0,3.0,89,0.00,CLR,,0.00,WeatherDisplay:10.37,2013-05-17 06:00:00,
2013-05-17 07:10:00,41.2,38.2,29.67,ESE,119,0.0,2.0,89,0.00,CLR,,0.00,WeatherDisplay:10.37,2013-05-17 06:10:00,
2013-05-17 07:20:00,43.0,39.4,29.67,SSW,198,2.0,6.0,87,0.00,CLR,,0.00,WeatherDisplay:10.37,2013-05-17 06:20:00,
2013-05-17 07:30:00,46.0,41.5,29.67,SSW,202,0.0,4.0,84,0.00,CLR,,0.00,WeatherDisplay:10.37,2013-05-17 06:30:00,
2013-05-17 07:40:00,50.0,41.7,29.67,SSW,202,3.0,6.0,73,0.00,CLR,,0.00,WeatherDisplay:10.37,2013-05-17 06:40:00,
2013-05-17 07:50:00,51.2,39.9,29.68,SSW,202,0.0,4.0,65,0.00,CLR,,0.00,WeatherDisplay:10.37,2013-05-17 06:50:00,
2013-05-17 08:00:00,54.7,39.8,29.68,SSW,197,5.0,7.0,57,0.00,CLR,,0.00,WeatherDisplay:10.37,2013-05-17 07:00:00,
2013-05-17 08:10:00,57.6,38.0,29.69,SSE,161,1.0,4.0,48,0.00,CLR,,0.00,WeatherDisplay:10.37,2013-05-17 07:10:00,
2013-05-17 08:20:00,57.9,35.6,29.69,ENE,59,2.0,7.0,43,0.00,CLR,,0.00,WeatherDisplay:10.37,2013-05-17 07:20:00,
2013-05-17 08:30:00,55.2,33.7,29.69,ENE,68,3.0,7.0,44,0.00,CLR,,0.00,WeatherDisplay:10.37,2013-05-17 07:30:00,
2013-05-17 08:40:00,56.8,34.6,29.69,ENE,61,5.0,7.0,43,0.00,CLR,,0.00,WeatherDisplay:10.37,2013-05-17 07:40:00,
2013-05-17 08:50:00,59.6,34.6,29.69,East,89,5.0,9.0,39,0.00,CLR,,0.00,WeatherDisplay:10.37,2013-05-17 07:50:00,
2013-05-17 09:00:00,60.4,34.0,29.69,ENE,62,5.0,10.0,37,0.00,CLR,,0.00,WeatherDisplay:10.37,2013-05-17 08:00:00,
2013-05-17 09:10:00,60.4,33.3,29.70,ENE,70,9.0,13.0,36,0.00,CLR,,0.00,WeatherDisplay:10.37,2013-05-17 08:10:00,
2013-05-17 09:20:00,58.6,31.7,29.70,East,86,9.0,15.0,36,0.00,CLR,,0.00,WeatherDisplay:10.37,2013-05-17 08:20:00,
2013-05-17 09:30:00,58.3,32.8,29.70,NE,55,7.0,12.0,38,0.00,CLR,,0.00,WeatherDisplay:10.37,2013-05-17 08:30:00,
2013-05-17 09:40:00,60.3,33.9,29.70,ENE,70,8.0,10.0,37,0.00,CLR,,0.00,WeatherDisplay:10.37,2013-05-17 08:40:00,
2013-05-17 09:50:00,60.4,31.9,29.71,ENE,67,7.0,11.0,34,0.00,CLR,,0.00,WeatherDisplay:10.37,2013-05-17 08:50:00,
2013-05-17 10:00:00,60.7,32.8,29.70,ENE,61,6.0,12.0,35,0.00,CLR,,0.00,WeatherDisplay:10.37,2013-05-17 09:00:00,
2013-05-17 10:10:00,60.4,31.2,29.70,East,88,5.0,14.0,33,0.00,CLR,,0.00,WeatherDisplay:10.37,2013-05-17 09:10:00,
2013-05-17 10:20:00,60.4,31.9,29.70,ENE,60,10.0,14.0,34,0.00,CLR,,0.00,WeatherDisplay:10.37,2013-05-17 09:20:00,
2013-05-17 10:30:00,60.6,31.3,29.70,ENE,71,7.0,10.0,33,0.00,CLR,,0.00,WeatherDisplay:10.37,2013-05-17 09:30:00,
2013-05-17 10:40:00,61.5,32.1,29.70,ENE,73,8.0,12.0,33,0.00,CLR,,0.00,WeatherDisplay:10.37,2013-05-17 09:40:00,
2013-05-17 10:50:00,61.4,31.3,29.71,ENE,73,5.0,9.0,32,0.00,CLR,,0.00,WeatherDisplay:10.37,2013-05-17 09:50:00,
2013-05-17 11:00:00,62.1,31.8,29.71,ENE,76,5.0,10.0,32,0.00,CLR,,0.00,WeatherDisplay:10.37,2013-05-17 10:00:00,
2013-05-17 11:10:00,63.3,31.3,29.71,East,83,5.0,13.0,30,0.00,CLR,,0.00,WeatherDisplay:10.37,2013-05-17 10:10:00,
2013-05-17 11:20:00,63.5,32.3,29.71,ENE,76,3.0,10.0,31,0.00,CLR,,0.00,WeatherDisplay:10.37,2013-05-17 10:20:00,
2013-05-17 11:30:00,65.6,34.1,29.71,ESE,107,1.0,7.0,31,0.00,CLR,,0.00,WeatherDisplay:10.37,2013-05-17 10:30:00,
2013-05-17 11:40:00,66.4,34.8,29.70,East,83,3.0,7.0,31,0.00,CLR,,0.00,WeatherDisplay:10.37,2013-05-17 10:40:00,
2013-05-17 11:50:00,66.0,34.5,29.70,ENE,71,5.0,16.0,31,0.00,CLR,,0.00,WeatherDisplay:10.37,2013-05-17 10:50:00,
2013-05-17 12:00:00,64.3,33.0,29.71,SE,132,1.0,5.0,31,0.00,CLR,,0.00,WeatherDisplay:10.37,2013-05-17 11:00:00,
2013-05-17 12:10:00,64.6,34.0,29.71,SSE,152,2.0,9.0,32,0.00,CLR,,0.00,WeatherDisplay:10.37,2013-05-17 11:10:00,
2013-05-17 12:20:00,64.6,34.0,29.70,West,280,2.0,10.0,32,0.00,CLR,,0.00,WeatherDisplay:10.37,2013-05-17 11:20:00,
2013-05-17 12:30:00,62.8,31.7,29.71,NNW,329,2.0,7.0,31,0.00,CLR,,0.00,WeatherDisplay:10.37,2013-05-17 11:30:00,
2013-05-17 12:40:00,61.9,33.2,29.70,ENE,64,5.0,7.0,34,0.00,CLR,,0.00,WeatherDisplay:10.37,2013-05-17 11:40:00,
2013-05-17 12:50:00,63.2,35.1,29.70,ESE,105,3.0,13.0,35,0.00,CLR,,0.00,WeatherDisplay:10.37,2013-05-17 11:50:00,
2013-05-17 13:00:00,63.1,34.3,29.71,NNE,26,5.0,14.0,34,0.00,CLR,,0.00,WeatherDisplay:10.37,2013-05-17 12:00:00,
2013-05-17 13:10:00,61.4,32.8,29.71,NE,52,2.0,12.0,34,0.00,CLR,,0.00,WeatherDisplay:10.37,2013-05-17 12:10:00,
2013-05-17 13:20:00,59.7,32.0,29.71,East,93,5.0,12.0,35,0.00,CLR,,0.00,WeatherDisplay:10.37,2013-05-17 12:20:00,
2013-05-17 13:30:00,62.6,36.6,29.71,East,85,1.0,12.0,38,0.00,CLR,,0.00,WeatherDisplay:10.37,2013-05-17 12:30:00,
2013-05-17 13:40:00,63.3,33.7,29.71,West,262,2.0,5.0,33,0.00,CLR,,0.00,WeatherDisplay:10.37,2013-05-17 12:40:00,
2013-05-17 13:50:00,61.1,32.5,29.71,ENE,63,5.0,8.0,34,0.00,CLR,,0.00,WeatherDisplay:10.37,2013-05-17 12:50:00,
2013-05-17 14:00:00,62.7,35.4,29.71,ENE,76,3.0,9.0,36,0.00,CLR,,0.00,WeatherDisplay:10.37,2013-05-17 13:00:00,
2013-05-17 14:10:00,65.3,33.9,29.71,WNW,283,5.0,9.0,31,0.00,CLR,,0.00,WeatherDisplay:10.37,2013-05-17 13:10:00,
2013-05-17 14:20:00,63.0,31.8,29.71,WNW,287,5.0,12.0,31,0.00,CLR,,0.00,WeatherDisplay:10.37,2013-05-17 13:20:00,
2013-05-17 14:30:00,65.0,34.4,29.70,WNW,283,5.0,7.0,32,0.00,CLR,,0.00,WeatherDisplay:10.37,2013-05-17 13:30:00,
2013-05-17 14:40:00,64.0,31.1,29.70,NW,306,1.0,10.0,29,0.00,CLR,,0.00,WeatherDisplay:10.37,2013-05-17 13:40:00,
2013-05-17 14:50:00,61.7,29.1,29.71,WNW,295,6.0,11.0,29,0.00,CLR,,0.00,WeatherDisplay:10.37,2013-05-17 13:50:00,
2013-05-17 15:00:00,61.3,30.4,29.71,NW,307,2.0,7.0,31,0.00,CLR,,0.00,WeatherDisplay:10.37,2013-05-17 14:00:00,
2013-05-17 15:10:00,60.3,29.5,29.71,ESE,120,1.0,8.0,31,0.00,CLR,,0.00,WeatherDisplay:10.37,2013-05-17 14:10:00,
2013-05-17 15:20:00,60.6,30.6,29.72,East,85,3.0,7.0,32,0.00,CLR,,0.00,WeatherDisplay:10.37,2013-05-17 14:20:00,
2013-05-17 15:30:00,61.0,30.9,29.71,NW,319,1.0,5.0,32,0.00,CLR,,0.00,WeatherDisplay:10.37,2013-05-17 14:30:00,
2013-05-17 15:40:00,60.4,30.4,29.71,WNW,291,5.0,7.0,32,0.00,CLR,,0.00,WeatherDisplay:10.37,2013-05-17 14:40:00,
2013-05-17 15:50:00,60.3,30.3,29.71,West,281,1.0,10.0,32,0.00,CLR,,0.00,WeatherDisplay:10.37,2013-05-17 14:50:00,
2013-05-17 16:00:00,60.9,30.8,29.70,West,270,3.0,7.0,32,0.00,CLR,,0.00,WeatherDisplay:10.37,2013-05-17 15:00:00,
2013-05-17 16:10:00,62.1,31.8,29.71,East,80,7.0,13.0,32,0.00,CLR,,0.00,WeatherDisplay:10.37,2013-05-17 15:10:00,
2013-05-17 16:20:00,61.3,30.4,29.71,ESE,121,2.0,10.0,31,0.00,CLR,,0.00,WeatherDisplay:10.37,2013-05-17 15:20:00,
2013-05-17 16:30:00,61.2,31.0,29.72,SW,215,3.0,12.0,32,0.00,CLR,,0.00,WeatherDisplay:10.37,2013-05-17 15:30:00,
2013-05-17 16:40:00,60.3,29.5,29.72,WNW,301,3.0,7.0,31,0.00,CLR,,0.00,WeatherDisplay:10.37,2013-05-17 15:40:00,
2013-05-17 16:50:00,58.8,29.0,29.72,WNW,301,3.0,8.0,32,0.00,CLR,,0.00,WeatherDisplay:10.37,2013-05-17 15:50:00,
2013-05-17 17:00:00,58.6,31.0,29.72,ENE,74,2.0,12.0,35,0.00,CLR,,0.00,WeatherDisplay:10.37,2013-05-17 16:00:00,
2013-05-17 17:10:00,59.7,32.7,29.71,NE,40,6.0,9.0,36,0.00,CLR,,0.00,WeatherDisplay:10.37,2013-05-17 16:10:00,
2013-05-17 17:20:00,60.4,31.9,29.71,ESE,121,3.0,11.0,34,0.00,CLR,,0.00,WeatherDisplay:10.37,2013-05-17 16:20:00,
2013-05-17 17:30:00,60.4,31.2,29.71,SE,146,1.0,9.0,33,0.00,CLR,,0.00,WeatherDisplay:10.37,2013-05-17 16:30:00,
2013-05-17 17:40:00,59.9,30.7,29.71,East,91,8.0,14.0,33,0.00,CLR,,0.00,WeatherDisplay:10.37,2013-05-17 16:40:00,
2013-05-17 17:50:00,58.8,31.2,29.71,ENE,78,6.0,14.0,35,0.00,CLR,,0.00,WeatherDisplay:10.37,2013-05-17 16:50:00,
2013-05-17 18:00:00,58.3,31.4,29.71,ESE,123,1.0,7.0,36,0.00,CLR,,0.00,WeatherDisplay:10.37,2013-05-17 17:00:00,
2013-05-17 18:10:00,58.1,31.3,29.71,South,181,2.0,6.0,36,0.00,CLR,,0.00,WeatherDisplay:10.37,2013-05-17 17:10:00,
2013-05-17 18:20:00,58.5,31.6,29.71,SE,124,6.0,12.0,36,0.00,CLR,,0.00,WeatherDisplay:10.37,2013-05-17 17:20:00,
2013-05-17 18:30:00,58.1,31.3,29.72,East,92,12.0,15.0,36,0.00,CLR,,0.00,WeatherDisplay:10.37,2013-05-17 17:30:00,
2013-05-17 18:40:00,56.4,32.3,29.72,ENE,70,10.0,17.0,40,0.00,CLR,,0.00,WeatherDisplay:10.37,2013-05-17 17:40:00,
2013-05-17 18:50:00,55.0,32.9,29.73,ENE,67,7.0,17.0,43,0.00,CLR,,0.00,WeatherDisplay:10.37,2013-05-17 17:50:00,
2013-05-17 19:00:00,54.1,33.2,29.72,ENE,74,7.0,15.0,45,0.00,CLR,,0.00,WeatherDisplay:10.37,2013-05-17 18:00:00,
2013-05-17 19:10:00,53.1,32.8,29.72,East,90,5.0,12.0,46,0.00,CLR,,0.00,WeatherDisplay:10.37,2013-05-17 18:10:00,
2013-05-17 19:20:00,52.7,33.0,29.72,East,82,6.0,13.0,47,0.00,CLR,,0.00,WeatherDisplay:10.37,2013-05-17 18:20:00,
2013-05-17 19:30:00,52.7,33.5,29.72,East,94,1.0,7.0,48,0.00,CLR,,0.00,WeatherDisplay:10.37,2013-05-17 18:30:00,
2013-05-17 19:40:00,52.7,33.5,29.72,ENE,58,1.0,6.0,48,0.00,CLR,,0.00,WeatherDisplay:10.37,2013-05-17 18:40:00,
2013-05-17 19:50:00,52.4,34.3,29.73,SW,222,2.0,7.0,50,0.00,CLR,,0.00,WeatherDisplay:10.37,2013-05-17 18:50:00,
2013-05-17 20:00:00,52.1,34.0,29.73,West,269,5.0,12.0,50,0.00,CLR,,0.00,WeatherDisplay:10.37,2013-05-17 19:00:00,
2013-05-17 20:10:00,51.6,33.5,29.73,WNW,288,3.0,11.0,50,0.00,CLR,,0.00,WeatherDisplay:10.37,2013-05-17 19:10:00,
2013-05-17 20:20:00,51.2,33.1,29.73,West,280,5.0,11.0,50,0.00,CLR,,0.00,WeatherDisplay:10.37,2013-05-17 19:20:00,
2013-05-17 20:30:00,50.6,33.6,29.73,West,265,3.0,9.0,52,0.00,CLR,,0.00,WeatherDisplay:10.37,2013-05-17 19:30:00,
2013-05-17 20:40:00,50.1,33.6,29.74,WSW,241,2.0,9.0,53,0.00,CLR,,0.00,WeatherDisplay:10.37,2013-05-17 19:40:00,
2013-05-17 20:50:00,48.8,33.8,29.74,WSW,257,2.0,7.0,56,0.00,CLR,,0.00,WeatherDisplay:10.37,2013-05-17 19:50:00,
2013-05-17 21:00:00,48.4,34.3,29.74,WSW,248,5.0,12.0,58,0.00,CLR,,0.00,WeatherDisplay:10.37,2013-05-17 20:00:00,
2013-05-17 21:10:00,49.1,36.2,29.74,SW,219,8.0,12.0,61,0.00,CLR,,0.00,WeatherDisplay:10.37,2013-05-17 20:10:00,
2013-05-17 21:20:00,49.1,36.2,29.74,SW,229,7.0,12.0,61,0.00,CLR,,0.00,WeatherDisplay:10.37,2013-05-17 20:20:00,
2013-05-17 21:30:00,48.9,36.9,29.74,WSW,249,3.0,13.0,63,0.00,CLR,,0.00,WeatherDisplay:10.37,2013-05-17 20:30:00,
2013-05-17 21:40:00,48.6,37.3,29.74,West,266,9.0,15.0,65,0.00,CLR,,0.00,WeatherDisplay:10.37,2013-05-17 20:40:00,
2013-05-17 21:50:00,48.4,37.1,29.75,WSW,257,7.0,8.0,65,0.00,CLR,,0.00,WeatherDisplay:10.37,2013-05-17 20:50:00,
2013-05-17 22:00:00,47.8,36.6,29.75,WSW,250,3.0,9.0,65,0.00,CLR,,0.00,WeatherDisplay:10.37,2013-05-17 21:00:00,
2013-05-17 22:10:00,47.4,36.2,29.76,West,273,3.0,6.0,65,0.00,CLR,,0.00,WeatherDisplay:10.37,2013-05-17 21:10:00,
2013-05-17 22:20:00,47.3,36.1,29.75,West,269,2.0,5.0,65,0.00,CLR,,0.00,WeatherDisplay:10.37,2013-05-17 21:20:00,
2013-05-17 22:30:00,46.8,36.4,29.75,West,272,2.0,5.0,67,0.00,CLR,,0.00,WeatherDisplay:10.37,2013-05-17 21:30:00,
2013-05-17 22:40:00,46.9,36.9,29.75,WNW,302,3.0,12.0,68,0.00,CLR,,0.00,WeatherDisplay:10.37,2013-05-17 21:40:00,
2013-05-17 22:50:00,46.8,37.1,29.75,SW,226,5.0,9.0,69,0.00,CLR,,0.00,WeatherDisplay:10.37,2013-05-17 21:50:00,
2013-05-17 23:00:00,46.8,37.5,29.75,West,271,8.0,15.0,70,0.00,CLR,,0.00,WeatherDisplay:10.37,2013-05-17 22:00:00,
2013-05-17 23:10:00,46.6,38.0,29.74,WNW,282,13.0,20.0,72,0.00,CLR,,0.00,WeatherDisplay:10.37,2013-05-17 22:10:00,
2013-05-17 23:20:00,46.6,38.0,29.75,WNW,297,10.0,16.0,72,0.00,CLR,,0.00,WeatherDisplay:10.37,2013-05-17 22:20:00,
2013-05-17 23:30:00,46.4,38.2,29.75,WNW,290,9.0,14.0,73,0.00,CLR,,0.00,WeatherDisplay:10.37,2013-05-17 22:30:00,
2013-05-17 23:40:00,46.4,38.2,29.74,WNW,303,9.0,12.0,73,0.00,CLR,,0.00,WeatherDisplay:10.37,2013-05-17 22:40:00,
2013-05-17 23:50:00,46.6,38.4,29.75,WNW,302,9.0,13.0,73,0.00,CLR,,0.00,WeatherDisplay:10.37,2013-05-17 22:50:00,